Regional Weather Roundup
Issued by NWS New Orleans/Baton Rouge, LA

Home | Current Version | Previous Version | Text Only | Print | Product List | Glossary On
Versions: 1 2 3 4 5 6 7 8 9 10 11 12 13 14 15 16 17 18 19 20 21 22 23 24 25 26 27 28 29 30 31 32 33 34 35 36 37 38 39 40 41 42 43 44 45 46 47 48 49 50
206
ASUS44 KLIX 300513
RWRLIX
NEW ORLEANS REGIONAL WEATHER ROUNDUP
NATIONAL WEATHER SERVICE NEW ORLEANS LA
1200 AM CDT TUE MAY 30 2017

NOTE: "FAIR" INDICATES FEW OR NO CLOUDS BELOW 12,000 FEET WITH NO
      SIGNIFICANT WEATHER AND/OR OBSTRUCTIONS TO VISIBILITY.
      SKY/WX - SKY CONDITION AND SIGNIFICANT WEATHER.
      TMP - AIR TEMPERATURE.     DP    - DEWPOINT TEMPERATURE.
      RH  - RELATIVE HUMIDITY.   PRES  - PRESSURE.
      HI  - HEAT INDEX.          WCI   - WIND CHILL INDEX.

*  THESE STATIONS ARE NOT NWS OR FAA STATIONS AND ARE NOT UNDER
   NWS QUALITY CONTROL.

LAZ038-040-048-061>063-065>067-069-300600-
SOUTHEAST LOUISIANA

CITY           SKY/WX    TMP DP  RH WIND       PRES   REMARKS
N.O. INTL ARPT CLOUDY    73  71  93 SE3       30.07R
N.O. LAKEFRONT CLOUDY    74  71  91 SE6       30.07S
N.O. DOWNTOWN*   N/A     75  69  81 CALM        N/A
RESERVE*         N/A     73  70  91 CALM      30.07S
SLIDELL        CLOUDY    71  69  93 CALM      30.06S
BATON ROUGE    CLOUDY    73  71  93 CALM      30.06R
BOOTHVILLE     CLOUDY    74  71  91 N3        30.09R
BELLE CHASSE   CLOUDY   N/A N/A N/A E3        30.06F
BOGALUSA*        N/A     73  69  87 CALM      30.08S
GALLIANO*      CLOUDY    74  67  80 CALM      30.07F
NEW ROADS*     LGT RAIN  72  71  96 CALM      30.07R
GONZALES*        N/A     72  69  92 CALM      30.07R
HAMMOND*       CLOUDY    73  70  88 SE3       30.06S
HOUMA*         NOT AVBL
PORT FOURCHON* CLOUDY    79  72  78 NE6       30.06F

$$

MSZ070-080>082-300600-
SOUTHERN MISSISSIPPI

CITY           SKY/WX    TMP DP  RH WIND       PRES   REMARKS
MCCOMB         CLOUDY    72  69  90 SE5       30.05F
GULFPORT       CLOUDY    71  69  93 NE5       30.06R
BILOXI         CLOUDY    71  68  89 NE6       30.06R
PASCAGOULA     CLOUDY    70  67  90 NE6       30.07F

$$

COASTAL OBSERVATIONS
LAKE AND NEARSHORE STATIONS

STATION/POSITION TIME  TEMP    WIND        PRES    WAVE
                       AIR SEA DIR/SP/G            HT/PER
                 (UTC) (F)     (DEG/KT/KT) (MB)    (FT/S)
PASCAGOULA       0448   69      50/  8/ 12 1017.9
WAVELAND YACHT   0448   74 81   50/  3/  4 1017.9
GRAND ISLE       0448   76 81   70/  8/ 13 1018.1
SOUTHWEST PASS   0448          150/  6/  8   N/A
NEW CANAL        0448   73 81  150/  3/  5 1018.1
SHELL BEACH      0448   75 81   80/  6/  8 1018.3

OFFSHORE STATIONS

STATION/POSITION TIME  TEMP    WIND        PRES    WAVE
                       AIR SEA DIR/SP/G            HT/PER
                 (UTC) (F)     (DEG/KT/KT) (MB)    (FT/S)
64 S DAUPHIN ISL 0450   79 80  170/  8/ 10 1018.6    2/ 5

$$





USA.gov is the U.S. government's official web portal to all federal, state and local government web resources and services.